Regional Weather Roundup
Issued by NWS

Home | Current Version | Previous Version | Graphics & Text | Print | Product List | Glossary On
Versions: 1 2 3 4 5 6 7 8 9 10 11 12 13 14 15 16 17 18 19 20 21 22 23 24 25 26 27 28 29 30 31 32 33 34 35 36 37 38 39 40 41 42 43 44 45 46 47 48 49 50
000
ASUS43 KIND 271809
RWRIN

WEATHER ROUNDUP FOR INDIANA
NATIONAL WEATHER SERVICE INDIANAPOLIS IN
100 PM EST TUE JAN 27 2015

NOTE: "FAIR" INDICATES FEW OR NO CLOUDS BELOW 12,000 FEET WITH NO
SIGNIFICANT WEATHER AND/OR OBSTRUCTIONS TO VISIBILITY.

* - STATION DOES NOT REPORT WEATHER SUCH AS PRECIPITATION OR FOG.

+ - STATION NOT QUALITY CONTROLLED BY THE NATIONAL WEATHER SERVICE.
    USE DATA WITH CAUTION...ESPECIALLY DEWPOINT AND RELATIVE
    HUMIDITY OBSERVATIONS.

INZ001>003-010>013-019-020-271900-
NORTHWEST INDIANA

CITY           SKY/WX    TMP DP  RH WIND       PRES   REMARKS
GARY /AIRPORT/ MOSUNNY   32  10  40 NE7       30.17S WCI  26
KNOX *+        SUNNY     28  -6  22 N6        30.14S WCI  22
LA PORTE +     SUNNY     31  12  45 E6        30.15R WCI  25
6HR MIN TEMP:  25; 6HR MAX TEMP:  31;

MICHIGAN CITY+ SUNNY     30   9  40 CALM      30.16S
MONTICELLO +   CLOUDY    26  13  58 NE3       30.14S
RENSSELAER +   CLOUDY    28  19  69 NE6       30.16S WCI  22
VALPARAISO     SUNNY     28   9  44 E3        30.15S
6HR MIN TEMP:  23; 6HR MAX TEMP:  28;


$$

LMZ046-743>745-271900-
SOUTHERN LAKE MICHIGAN

STATION/POSITION TIME  TEMP WIND        PRES
                       AIR  DIR/SP/G
                 (UTC) (F)  (DEG/KT/KT) (MB)
MICHIGAN CITY    1800   26  350/ 11/ 11   N/A

$$

INZ004-005-014>016-021>024-271900-
NORTH CENTRAL INDIANA

CITY           SKY/WX    TMP DP  RH WIND       PRES   REMARKS
ELKHART        SUNNY     27   7  43 CALM      30.15S
GOSHEN         SUNNY     25  12  58 CALM      30.13S
6HR MIN TEMP:  20; 6HR MAX TEMP:  25;

LOGANSPORT +   MOSUNNY   27  10  50 S3        30.15R
PERU/GRISSOM   SUNNY     26  11  54 CALM      30.13R
6HR MIN TEMP:  21; 6HR MAX TEMP:  26; 6HR PCP: TRACE;

ROCHESTER +    SUNNY     30  14  51 CALM      30.14R
SOUTH BEND     SUNNY     28   8  43 CALM      30.15R
6HR MIN TEMP:  22; 6HR MAX TEMP:  28;

WARSAW +       SUNNY     27  12  54 CALM      30.13R

$$

INZ006>009-017-018-025>027-271900-
NORTHEAST INDIANA

CITY           SKY/WX    TMP DP  RH WIND       PRES   REMARKS
ANGOLA *+      SUNNY     23  10  58 E3        30.10S
AUBURN +       SUNNY     27  14  59 NE6       30.12S WCI  20
FORT WAYNE     MOSUNNY   23  13  65 E5        30.12S WCI  17
6HR MIN TEMP:  16; 6HR MAX TEMP:  24;

HUNTINGTON +   SUNNY     23   9  55 CALM      30.12F
6HR MIN TEMP:  18; 6HR MAX TEMP:  23;


$$

INZ028-029-035-036-043>045-051>053-271900-
WEST CENTRAL INDIANA

CITY           SKY/WX    TMP DP  RH WIND       PRES   REMARKS
CRAWFORDSVL +  CLOUDY    26  19  75 NE5       30.12S WCI  21
GREENCASTLE +  CLOUDY    30  23  74 NE5       30.11S WCI  25
LAFAYETTE      CLOUDY    26  16  65 E3        30.14S
6HR MIN TEMP:  24; 6HR MAX TEMP:  26;

TERRE HAUTE    CLOUDY    31  27  85 N7        30.12F WCI  24
6HR MIN TEMP:  29; 6HR MAX TEMP:  31;


$$

INZ030>032-037>040-046>048-054>057-064-065-271900-
CENTRAL INDIANA

CITY           SKY/WX    TMP DP  RH WIND       PRES   REMARKS
ANDERSON       PTSUNNY   27  12  54 N6        30.11F WCI  20
CP ATTERBURY + CLOUDY    30  16  55 NE5       30.12S WCI  25
COLUMBUS       CLOUDY    28  16  59 NE6       30.12S WCI  22
GREENWOOD *+   CLOUDY    28  10  47 NE5       30.11  WCI  23
INDIANAPOLIS   PTSUNNY   27  18  69 NE6       30.11S WCI  20
6HR MIN TEMP:  24; 6HR MAX TEMP:  27; 6HR PCP: TRACE;

-EAGLE CREEK   CLOUDY    27  17  66 E5        30.10S WCI  22
6HR MIN TEMP:  25; 6HR MAX TEMP:  27;

KOKOMO *+      SUNNY     27  18  69 NE3       30.13S
MARION +       SUNNY     24  12  61 CALM      30.13S
MT COMFORT *+  MOSUNNY   30   3  31 NE7       30.11S WCI  23
SHELBYVILLE    CLOUDY    28  16  60 E5        30.11R WCI  23
6HR MIN TEMP:  24; 6HR MAX TEMP:  28;

ZIONSVILLE +   CLOUDY    28  11  51 NE5       30.11S WCI  22
6HR MIN TEMP:  25; 6HR MAX TEMP:  28;


$$

INZ033-034-041-042-049-050-058-059-271900-
EAST CENTRAL INDIANA

CITY           SKY/WX    TMP DP  RH WIND       PRES   REMARKS
MUNCIE         SUNNY     24  13  62 NE8       30.10F WCI  15
6HR MIN TEMP:  19; 6HR MAX TEMP:  24;


$$

INZ060-061-067>069-081>083-085>088-271900-
SOUTHWEST INDIANA

CITY           SKY/WX    TMP DP  RH WIND       PRES   REMARKS
EVANSVILLE     CLOUDY    35  30  82 N7        30.13S WCI  29
6HR MIN TEMP:  33; 6HR MAX TEMP:  36;

HUNTINGBURG *+ CLOUDY    32  27  80 CALM      30.11S
6HR MIN TEMP:  30; 6HR MAX TEMP:  32;

WASHINGTON +   CLOUDY    32  27  83 N7        30.12S WCI  25
6HR MIN TEMP:  29; 6HR MAX TEMP:  32;


$$

INZ062-063-066-070>080-084-089>092-271900-
SOUTH CENTRAL AND SOUTHEAST INDIANA

CITY           SKY/WX    TMP DP  RH WIND       PRES   REMARKS
BLOOMINGTON    CLOUDY    31  25  78 N3        30.09S
6HR MIN TEMP:  28; 6HR MAX TEMP:  31;

SEYMOUR +      CLOUDY    32  23  69 N6        30.11  WCI  26

$$



USA.gov is the U.S. government's official web portal to all federal, state and local government web resources and services.